Date,TemperatureHighF,TemperatureAvgF,TemperatureLowF,DewpointHighF,DewpointAvgF,DewpointLowF,HumidityHigh,HumidityAvg,HumidityLow,PressureMaxIn,PressureMinIn,WindSpeedMaxMPH,WindSpeedAvgMPH,GustSpeedMaxMPH,PrecipitationSumIn
2014-1-1,59.4,42.3,26.8,35.5,29.2,19.0,80,62,35,30.34,29.83,30,10,30,0.00
2014-1-2,44.9,30.8,21.6,23.5,19.3,15.2,77,63,40,30.54,30.34,24,5,24,0.00
2014-1-3,60.2,41.8,26.9,28.7,24.0,18.7,73,52,27,30.38,29.78,33,10,33,0.00
2014-1-4,57.8,44.8,31.3,33.7,27.3,21.4,73,51,38,29.95,29.67,26,11,26,0.00
2014-1-5,33.2,26.0,15.5,21.8,12.5,4.7,77,58,33,30.65,29.94,23,11,29,0.00
2014-1-6,32.4,21.4,14.4,10.1,6.6,1.6,69,54,32,30.78,30.51,15,4,15,0.00
2014-1-7,50.3,33.0,19.6,22.6,15.8,8.9,68,50,32,30.51,30.10,26,8,26,0.00
2014-1-8,55.3,41.8,32.8,37.9,29.9,18.3,90,65,35,30.17,29.97,21,7,21,0.00
2014-1-9,40.4,37.7,35.3,37.1,34.9,32.3,92,89,83,30.17,29.92,13,3,13,0.00
2014-1-10,61.9,48.3,37.4,47.9,35.2,24.6,92,66,29,29.92,29.66,22,6,22,0.00
2014-1-11,66.9,48.4,30.5,26.5,21.8,19.0,72,39,16,30.09,29.84,18,5,18,0.00
2014-1-12,80.6,59.5,42.1,33.6,27.5,20.9,50,32,13,29.90,29.53,41,11,41,0.00
2014-1-13,61.4,47.4,35.4,29.9,18.6,8.0,60,35,12,30.07,29.80,26,7,26,0.00
2014-1-14,59.2,41.8,24.2,34.8,20.2,10.6,68,44,18,30.39,29.93,29,6,29,0.00
2014-1-15,60.8,44.0,29.7,25.1,22.5,19.7,69,45,23,30.39,29.96,29,7,29,0.00
2014-1-16,63.4,46.8,32.7,28.4,20.9,11.5,67,40,14,30.24,29.94,26,6,26,0.00
2014-1-17,55.3,45.2,30.6,20.0,16.1,10.2,55,32,21,30.35,30.07,25,5,25,0.00
2014-1-18,69.7,47.8,30.3,28.3,21.0,17.4,65,38,15,30.21,30.02,26,5,26,0.00
2014-1-19,72.6,48.3,23.8,26.3,20.9,16.9,76,40,14,30.24,29.88,30,6,30,0.00
2014-1-20,71.7,50.2,29.8,26.6,22.5,18.8,68,37,15,30.32,29.78,35,8,35,0.00
2014-1-21,50.6,39.5,26.2,22.8,18.6,11.8,69,44,30,30.48,30.05,19,6,19,0.00
2014-1-22,53.5,37.6,20.8,25.4,21.3,15.0,79,55,32,30.25,30.04,21,5,21,0.00
2014-1-23,39.3,24.6,15.3,22.7,1.4,-7.9,55,37,24,30.84,30.24,32,11,32,0.00
2014-1-24,50.1,28.5,7.8,15.2,7.5,-5.0,73,44,23,30.83,30.17,28,6,28,0.00
2014-1-25,69.5,48.3,31.3,33.8,24.2,12.7,59,40,25,30.17,29.90,20,3,20,0.00
2014-1-26,67.9,47.9,31.2,32.0,27.9,23.9,77,50,20,29.90,29.63,17,4,17,0.00
2014-1-27,44.7,26.4,16.5,30.0,-2.8,-11.8,68,29,18,30.45,29.88,41,14,41,0.00
2014-1-28,34.6,21.7,12.5,12.1,6.0,-7.1,70,51,34,30.59,30.43,19,4,19,0.00
2014-1-29,48.9,31.3,10.1,14.2,9.1,4.5,79,45,20,30.43,29.97,31,7,31,0.00
2014-1-30,65.7,46.5,33.2,24.5,19.0,12.3,52,35,20,29.97,29.66,30,9,30,0.00
2014-1-31,43.3,36.1,27.7,30.5,26.6,21.0,83,69,52,29.86,29.64,20,6,20,0.00
2014-2-1,43.6,33.8,27.5,26.5,24.2,22.7,84,69,48,30.17,29.82,24,7,24,0.00
2014-2-2,32.9,26.3,18.6,25.3,20.7,13.0,92,79,67,30.35,30.13,26,8,26,0.00
2014-2-3,32.5,27.9,21.6,26.2,21.8,17.5,88,78,62,30.31,30.03,10,2,10,0.01
2014-2-4,38.1,33.3,27.4,33.3,29.4,19.9,91,86,73,30.25,29.87,30,6,30,0.01
2014-2-5,27.6,17.1,12.5,20.6,9.1,4.9,75,70,64,30.67,30.25,29,13,29,0.00
2014-2-6,17.8,13.8,9.5,12.1,7.7,4.3,83,76,70,30.68,30.44,20,7,20,0.00
2014-2-7,29.5,22.5,17.6,21.6,16.9,11.6,87,79,69,30.45,30.13,18,5,18,0.00
2014-2-8,44.1,30.6,23.1,34.5,26.4,20.1,91,85,67,30.13,29.98,11,3,11,0.00
2014-2-9,33.3,30.4,25.8,31.2,27.9,23.0,92,90,87,30.27,30.02,20,7,20,0.01
2014-2-10,28.1,23.1,21.3,25.3,19.5,16.9,90,86,80,30.39,30.27,20,9,20,0.00
2014-2-11,33.4,24.1,19.3,26.3,19.5,14.3,90,82,72,30.44,30.24,16,5,16,0.02
2014-2-12,52.4,32.5,16.4,34.6,24.8,13.2,90,75,49,30.24,30.02,18,3,18,0.00
2014-2-13,69.0,43.5,24.7,39.4,32.2,21.4,90,68,32,30.02,29.75,13,2,13,0.00
2014-2-14,65.8,48.9,32.6,38.3,29.7,18.6,86,54,17,30.06,29.64,30,7,30,0.00
2014-2-15,71.7,45.9,28.4,39.9,30.2,22.7,82,59,28,30.07,29.86,26,5,26,0.00
2014-2-16,70.2,53.5,34.0,44.1,38.5,28.5,85,59,37,30.00,29.71,19,4,19,0.00
2014-2-17,68.0,56.1,33.9,41.1,29.1,23.1,74,38,20,30.14,29.72,30,7,30,0.00
2014-2-18,82.7,53.6,29.2,42.7,32.6,23.4,81,51,20,30.06,29.72,26,4,26,0.00
2014-2-19,74.8,60.2,48.4,57.4,41.5,27.9,76,52,34,29.85,29.40,22,7,22,0.00
2014-2-20,65.0,53.5,32.2,55.4,29.0,12.7,75,42,17,30.07,29.37,37,10,37,0.00
2014-2-21,70.3,47.2,22.5,26.9,21.7,16.7,79,43,15,30.09,29.84,33,6,33,0.00
2014-2-22,73.0,54.9,38.8,33.6,26.3,19.5,65,37,14,29.86,29.71,14,4,14,0.00
2014-2-23,55.3,44.6,35.1,32.2,29.2,23.3,75,56,38,30.16,29.74,24,8,27,0.00
2014-2-24,50.6,37.8,27.3,36.1,28.3,21.5,84,69,54,30.20,30.01,10,3,14,0.00
2014-2-25,42.5,38.5,31.4,36.0,27.5,20.6,89,66,48,30.34,30.06,30,8,30,0.00
2014-2-26,38.9,28.8,19.9,20.7,14.0,8.6,67,54,37,30.43,30.15,29,7,29,0.00
2014-2-27,58.7,39.2,17.1,28.7,21.8,11.8,84,54,30,30.16,29.67,24,6,24,0.00
2014-2-28,80.4,57.0,39.9,40.2,34.4,27.2,79,47,18,29.77,29.52,19,6,24,0.00
2014-3-1,49.2,40.0,24.5,43.0,35.5,21.4,92,84,70,30.14,29.77,29,8,29,0.00
2014-3-2,24.4,16.4,13.2,21.4,11.2,5.6,89,80,71,30.53,30.13,30,13,30,0.00
2014-3-3,30.8,19.8,9.5,17.5,10.0,3.8,78,66,47,30.61,30.28,19,6,19,0.00
2014-3-4,57.2,37.4,17.7,29.1,22.3,13.1,84,58,32,30.29,29.92,21,6,21,0.00
2014-3-5,49.7,39.6,34.8,37.6,32.2,27.5,85,75,58,30.25,29.88,17,6,18,0.01
2014-3-6,59.0,42.4,27.4,38.9,32.7,24.3,90,71,42,30.26,29.92,14,4,22,0.00
2014-3-7,81.5,59.7,43.2,41.2,36.9,33.5,69,47,18,29.92,29.55,25,9,25,0.00
2014-3-8,52.1,40.3,36.0,41.1,29.3,25.8,75,65,58,30.35,29.74,28,12,28,0.00
2014-3-9,65.6,45.1,24.7,26.7,21.6,16.7,78,46,16,30.39,30.10,13,3,13,0.00
2014-3-10,80.4,58.8,34.5,46.9,29.6,22.5,62,37,13,30.10,29.67,20,7,24,0.00
2014-3-11,86.8,63.4,48.1,49.2,39.8,21.1,85,50,10,29.98,29.40,40,14,42,0.00
2014-3-12,59.2,46.5,33.8,33.4,25.0,15.7,73,47,19,30.34,29.98,33,9,35,0.00
2014-3-13,69.3,49.0,21.2,26.2,19.1,15.2,79,38,14,30.26,29.91,22,6,26,0.00
2014-3-14,71.9,58.1,43.4,33.9,28.2,20.1,49,33,23,29.91,29.84,19,5,19,0.00
2014-3-15,64.1,54.1,46.7,54.0,45.8,32.6,92,74,50,29.89,29.63,25,4,25,0.23
2014-3-16,54.1,45.5,34.0,50.2,33.2,24.5,89,63,39,30.15,29.82,37,13,37,0.05
2014-3-17,66.7,46.2,24.4,32.6,27.2,20.2,87,54,23,30.10,29.44,28,7,28,0.00
2014-3-18,77.2,61.1,46.3,31.5,27.8,18.3,48,30,13,29.93,29.32,39,14,39,0.00
2014-3-19,62.1,48.1,35.0,32.0,27.5,23.6,72,48,24,30.24,29.90,30,6,30,0.00
2014-3-20,77.5,56.4,34.5,33.5,29.1,26.2,76,41,16,30.18,29.81,27,8,27,0.00
2014-3-21,76.8,63.0,53.5,50.0,36.3,30.9,54,38,23,29.93,29.71,19,8,24,0.00
2014-3-22,56.6,50.8,44.8,33.8,31.0,28.1,59,47,37,30.18,29.91,26,9,26,0.00
2014-3-23,50.6,41.5,32.5,29.4,19.7,12.5,66,42,33,30.47,30.18,36,8,36,0.00
2014-3-24,69.7,47.8,28.7,32.2,26.6,21.3,77,48,23,30.24,30.00,28,6,28,0.00
2014-3-25,61.1,46.1,27.0,29.8,25.1,21.8,83,48,23,30.39,30.09,25,4,25,0.00
2014-3-26,60.0,51.0,43.3,51.8,39.0,26.0,88,65,42,30.10,29.63,30,10,30,0.23
2014-3-27,81.5,68.1,56.2,55.2,41.3,23.6,78,47,12,29.65,29.53,38,13,38,0.00
2014-3-28,62.5,55.7,47.9,42.9,39.1,32.9,72,55,36,30.09,29.64,27,8,27,0.00
2014-3-29,73.7,54.3,35.0,37.8,33.1,27.9,81,50,19,30.29,30.08,15,3,15,0.00
2014-3-30,82.8,65.5,47.8,40.5,36.4,32.6,61,37,20,30.12,29.70,34,11,34,0.00
2014-3-31,88.4,72.8,59.5,53.9,32.1,-2.9,71,32,3,29.76,29.63,26,8,26,0.00
2014-4-1,77.7,62.3,45.8,58.5,40.6,25.2,71,46,28,29.89,29.65,23,6,23,0.00
2014-4-2,89.4,76.1,66.2,66.0,62.0,54.5,83,64,32,29.65,29.43,29,12,29,0.00
2014-4-3,82.0,68.3,46.9,63.7,44.6,8.6,85,50,8,29.98,29.45,40,10,40,0.00
2014-4-4,66.8,52.1,36.8,34.3,30.7,25.9,73,48,22,30.16,29.98,19,5,19,0.00
2014-4-5,60.1,51.2,43.0,41.0,32.6,26.4,78,50,31,30.07,29.86,27,6,27,0.03
2014-4-6,50.0,48.1,45.6,45.7,43.0,40.1,89,82,75,29.92,29.76,16,4,16,0.06
2014-4-7,70.0,54.9,43.4,49.0,42.2,34.1,92,67,29,30.03,29.77,30,5,30,0.01
2014-4-8,76.9,59.5,43.9,39.0,32.6,28.3,71,40,19,30.18,29.99,26,8,26,0.00
2014-4-9,90.6,66.9,38.4,41.2,34.4,28.0,77,37,11,30.10,29.74,31,8,31,0.00
2014-4-10,92.9,75.0,60.5,45.0,36.6,25.5,54,27,9,29.78,29.65,29,8,29,0.00
2014-4-11,85.8,66.7,48.6,55.2,47.3,39.3,71,52,30,29.89,29.73,18,4,18,0.00
2014-4-12,96.3,77.6,61.4,60.0,53.5,30.2,74,48,10,29.74,29.44,26,10,28,0.00
2014-4-13,91.5,75.1,45.7,60.5,45.6,18.3,63,41,7,29.83,29.35,39,15,39,0.00
2014-4-14,54.5,44.7,37.6,33.1,24.3,14.4,69,47,22,30.29,29.82,27,14,31,0.00
2014-4-15,66.5,48.6,24.8,24.1,18.4,14.7,74,35,15,30.30,29.93,23,5,23,0.00
2014-4-16,76.0,60.7,46.9,39.1,27.9,19.0,51,30,17,29.93,29.71,33,12,33,0.00
2014-4-17,58.2,52.1,48.5,50.0,45.1,38.8,92,78,51,30.19,29.85,23,6,23,0.20
2014-4-18,69.2,55.8,45.6,53.7,49.1,42.3,91,79,57,30.22,30.03,17,3,17,0.00
2014-4-19,80.1,66.9,54.1,56.6,52.7,48.7,84,62,40,30.09,29.92,20,7,21,0.00
2014-4-20,72.2,65.2,59.5,61.8,57.4,52.7,89,77,60,30.00,29.84,26,6,26,0.41
2014-4-21,80.5,69.7,62.0,63.2,59.6,53.0,92,72,44,29.99,29.83,21,6,21,0.00
2014-4-22,83.1,67.6,51.6,58.8,53.4,47.9,88,63,34,30.05,29.81,12,3,14,0.00
2014-4-23,89.9,73.3,60.0,64.5,58.1,52.5,77,61,33,29.82,29.43,28,11,30,0.00
2014-4-24,78.5,69.9,55.9,61.8,46.0,33.8,79,46,20,29.86,29.49,39,11,39,0.00
2014-4-25,86.6,68.9,49.2,47.5,43.8,38.6,75,44,23,29.93,29.65,30,8,30,0.00
2014-4-26,94.3,78.8,67.1,64.4,58.1,46.3,72,51,31,29.66,29.33,33,12,33,0.00
2014-4-27,82.6,74.2,63.3,64.2,38.7,23.9,73,34,13,29.41,29.25,41,16,41,0.02
2014-4-28,80.5,64.9,49.9,41.0,36.8,23.2,67,38,12,29.65,29.41,31,6,31,0.00
2014-4-29,65.2,60.0,52.1,40.2,33.0,30.6,55,36,30,29.98,29.65,31,11,33,0.00
2014-4-30,66.0,54.3,41.9,35.0,29.8,24.2,70,42,21,30.18,29.98,27,8,27,0.00
2014-5-1,73.3,56.2,35.3,33.5,28.6,25.5,76,40,18,30.17,29.97,26,5,26,0.00
2014-5-2,78.2,60.9,38.8,35.2,27.9,17.7,74,34,11,30.01,29.85,20,3,20,0.00
2014-5-3,94.3,70.6,39.3,35.1,29.6,23.5,74,30,8,29.93,29.76,26,6,26,0.00
2014-5-4,99.8,81.5,58.8,36.6,29.4,20.1,35,17,6,29.82,29.63,23,10,28,0.00
2014-5-5,104.8,85.4,60.7,53.7,35.7,12.7,42,21,4,29.69,29.44,26,8,26,0.00
2014-5-6,102.1,86.8,66.0,62.9,46.3,28.3,56,28,8,29.53,29.36,28,8,28,0.00
2014-5-7,99.5,80.3,68.5,68.7,59.9,49.8,80,55,20,29.56,29.41,35,11,35,0.23
2014-5-8,90.0,73.9,61.3,64.1,51.1,23.0,88,54,9,29.69,29.48,27,7,27,0.46
2014-5-9,82.8,69.5,54.5,48.9,43.5,32.7,59,40,24,29.87,29.67,16,4,16,0.00
2014-5-10,96.3,80.3,63.5,62.2,54.2,47.0,68,44,19,29.72,29.47,28,9,30,0.00
2014-5-11,95.6,82.4,71.0,65.0,62.7,58.8,77,54,30,29.59,29.37,30,14,31,0.00
2014-5-12,81.2,66.4,53.1,65.9,49.7,37.6,85,57,35,30.09,29.43,32,12,32,0.00
2014-5-13,65.0,56.4,47.0,43.1,34.9,29.1,68,47,27,30.26,30.06,30,8,30,0.00
2014-5-14,73.2,58.2,41.1,42.1,32.4,25.3,76,43,18,30.28,30.12,24,4,24,0.00
2014-5-15,81.6,62.0,39.5,40.0,34.5,27.8,76,42,15,30.17,29.96,23,4,23,0.00
2014-5-16,91.1,71.2,50.5,48.7,41.0,28.3,73,39,11,30.07,29.68,17,4,19,0.00
2014-5-17,78.2,67.5,58.7,54.2,49.7,45.0,70,54,38,29.96,29.69,33,9,33,0.00
2014-5-18,90.4,73.6,57.6,60.6,55.3,51.1,85,56,30,29.98,29.71,24,7,27,0.00
2014-5-19,94.5,80.9,67.5,62.3,58.1,52.7,70,48,27,29.76,29.59,33,12,33,0.00
2014-5-20,99.1,85.1,71.5,61.4,57.3,50.8,63,41,23,29.77,29.64,32,11,32,0.00
2014-5-21,95.3,83.4,70.4,65.1,58.9,51.9,66,45,24,29.85,29.70,21,9,26,0.00
2014-5-22,90.6,78.6,70.5,64.2,61.1,56.3,71,56,33,29.93,29.77,19,6,19,0.00
2014-5-23,78.5,67.6,64.1,64.5,62.4,58.9,93,84,56,29.95,29.84,22,4,22,2.84
2014-5-24,76.4,67.5,62.8,69.8,63.9,60.8,93,88,74,29.95,29.77,24,3,24,0.17
2014-5-25,77.7,69.3,61.9,64.6,61.0,57.2,91,76,55,29.94,29.80,32,3,32,0.00
2014-5-26,82.8,69.1,60.1,64.4,59.9,57.0,90,74,43,30.00,29.79,18,4,18,0.64
2014-5-27,79.3,67.9,59.5,63.7,60.5,56.3,91,78,52,29.88,29.80,17,3,17,0.04
2014-5-28,86.5,73.9,60.3,64.6,61.1,57.3,91,67,43,29.92,29.80,18,4,18,0.01
2014-5-29,90.0,77.5,63.2,65.8,62.0,57.7,92,62,35,29.87,29.74,14,2,14,0.00
2014-5-30,87.8,77.3,65.4,68.3,64.0,60.9,89,65,45,29.85,29.75,14,3,18,0.00
2014-5-31,88.3,76.9,67.4,67.1,64.8,63.2,89,68,46,29.91,29.77,13,3,13,0.00
2014-6-1,95.1,82.2,69.4,69.0,65.7,63.3,85,60,38,29.85,29.60,26,6,26,0.00
2014-6-2,94.2,83.1,74.0,73.1,67.6,64.9,74,60,42,29.83,29.64,24,7,24,0.00
2014-6-3,95.5,84.7,73.4,71.3,66.9,62.9,77,57,36,29.86,29.67,24,8,24,0.00
2014-6-4,103.3,87.7,72.4,70.5,65.2,58.6,75,51,25,29.69,29.50,23,9,23,0.00
2014-6-5,101.1,88.2,74.3,69.8,67.0,64.6,72,51,33,29.63,29.52,22,7,22,0.00
2014-6-6,97.3,85.8,71.5,72.5,67.3,61.5,74,56,36,29.81,29.55,35,8,35,0.00
2014-6-7,88.8,78.5,67.6,71.2,66.4,59.4,83,67,54,29.82,29.67,37,8,37,0.28
2014-6-8,77.7,70.2,63.3,67.4,64.3,57.8,92,82,69,29.87,29.67,43,5,43,3.06
2014-6-9,78.0,68.6,60.7,65.5,56.9,51.8,90,69,41,29.82,29.63,36,11,36,0.60
2014-6-10,83.2,70.0,60.7,62.9,58.3,54.3,81,68,45,29.88,29.74,23,7,23,0.00
2014-6-11,95.3,79.2,60.8,70.0,63.6,56.4,88,62,40,29.79,29.53,21,6,22,0.00
2014-6-12,83.8,76.9,68.1,67.2,64.6,62.1,81,66,55,29.90,29.56,26,7,26,0.00
2014-6-13,86.0,76.0,66.1,67.3,63.9,60.5,85,68,52,29.99,29.75,16,4,16,0.00
2014-6-14,92.8,81.8,68.9,70.8,66.8,62.5,82,62,45,29.80,29.53,29,9,29,0.00
2014-6-15,95.5,85.4,74.9,72.2,69.4,66.8,78,60,46,29.73,29.54,26,8,26,0.00
2014-6-16,93.9,84.9,76.7,72.8,69.2,66.1,73,60,46,29.77,29.67,28,10,28,0.00
2014-6-17,95.9,85.6,75.9,74.1,69.9,65.9,77,60,45,29.78,29.65,23,11,24,0.00
2014-6-18,93.5,85.2,77.1,71.8,69.1,66.2,70,59,45,29.76,29.66,30,12,31,0.00
2014-6-19,92.5,83.7,68.9,72.9,68.9,61.8,86,62,47,29.93,29.72,25,7,25,0.08
2014-6-20,93.9,80.3,69.2,69.8,63.8,54.1,86,60,32,29.98,29.85,21,5,21,0.00
2014-6-21,91.1,80.7,70.2,70.5,64.1,60.3,76,59,37,29.90,29.74,24,6,24,0.00
2014-6-22,92.3,82.3,72.9,72.3,69.2,65.5,82,66,48,29.79,29.62,23,6,23,0.00
2014-6-23,87.9,75.9,65.0,69.4,65.4,60.6,89,71,49,29.91,29.63,28,5,33,0.81
2014-6-24,85.8,74.7,67.7,70.3,66.0,62.6,89,75,59,29.97,29.81,23,2,23,0.04
2014-6-25,91.8,76.4,65.9,73.3,66.9,61.9,89,74,50,29.98,29.78,23,4,23,0.00
2014-6-26,91.0,80.5,70.7,74.0,69.7,66.6,89,71,52,29.86,29.65,23,6,23,0.00
2014-6-27,92.7,83.1,73.0,72.3,69.4,67.0,84,65,49,29.68,29.52,33,12,33,0.00
2014-6-28,95.3,84.4,75.7,74.5,71.5,69.2,82,66,50,29.71,29.55,37,8,37,0.05
2014-6-29,99.5,87.7,76.4,74.9,70.6,66.2,80,59,38,29.79,29.66,27,9,27,0.00
2014-6-30,98.3,87.9,77.3,74.3,67.7,57.8,77,54,31,29.75,29.58,27,10,27,0.00
2014-7-1,90.6,80.9,73.0,70.7,65.7,58.4,77,61,41,29.90,29.60,31,6,31,0.00
2014-7-2,82.7,74.8,68.4,69.8,66.1,63.2,86,75,63,30.05,29.89,16,4,16,0.38
2014-7-3,85.3,74.6,68.3,71.4,65.3,61.4,84,73,56,30.13,29.98,17,4,17,0.02
2014-7-4,92.7,80.1,68.9,72.3,68.2,64.2,86,69,46,30.11,29.97,21,4,21,0.00
2014-7-5,95.2,84.4,73.0,71.5,67.5,65.1,80,59,38,30.02,29.86,23,7,23,0.00
2014-7-6,95.5,84.5,74.0,70.9,67.0,62.3,75,57,34,29.90,29.77,23,7,23,0.00
2014-7-7,99.2,86.5,71.8,69.9,65.4,58.4,80,53,28,29.84,29.70,19,6,19,0.00
2014-7-8,101.4,87.0,72.2,67.7,63.2,58.5,65,47,28,29.89,29.74,19,4,19,0.00
2014-7-9,95.9,84.4,73.3,70.0,67.3,64.3,77,58,39,29.93,29.77,25,5,25,0.00
2014-7-10,98.7,87.5,76.4,67.8,62.3,52.7,65,46,23,29.86,29.74,24,7,24,0.00
2014-7-11,94.0,84.9,74.9,66.6,63.4,57.3,64,49,37,29.95,29.84,30,8,30,0.00
2014-7-12,99.1,86.4,74.0,67.5,57.7,44.8,67,42,16,30.02,29.86,29,7,29,0.00
2014-7-13,100.8,87.1,71.9,66.7,58.9,52.4,56,40,25,29.98,29.80,20,6,20,0.00
2014-7-14,90.6,81.4,74.0,74.5,68.2,60.7,76,65,41,29.92,29.82,18,3,24,0.02
2014-7-15,86.3,77.7,71.3,67.3,59.7,52.8,78,56,37,30.03,29.88,16,5,16,0.00
2014-7-16,79.0,70.5,62.2,66.1,58.3,52.3,84,66,49,29.99,29.76,23,6,23,0.40
2014-7-17,69.2,65.9,62.5,66.2,62.4,58.6,92,89,76,29.95,29.79,19,5,19,0.96
2014-7-18,76.6,68.6,63.9,66.5,63.1,60.4,91,83,68,30.00,29.90,14,3,14,0.01
2014-7-19,87.0,73.9,61.8,70.9,65.0,57.9,89,75,58,29.98,29.83,17,4,17,0.01
2014-7-20,96.3,81.6,67.3,76.1,68.9,62.8,87,68,42,29.89,29.76,24,5,24,0.00
2014-7-21,98.7,86.0,73.6,78.6,72.3,69.2,87,66,40,29.91,29.80,19,5,19,0.00
2014-7-22,99.5,86.7,73.4,76.6,70.1,66.6,83,60,37,29.95,29.86,17,3,17,0.00
2014-7-23,99.6,86.1,71.1,75.5,69.6,65.7,86,60,34,30.02,29.88,15,2,15,0.00
2014-7-24,99.0,87.1,73.9,75.1,71.1,68.2,85,61,40,29.93,29.80,14,2,14,0.00
2014-7-25,101.8,88.6,74.2,71.3,64.9,56.8,76,49,25,29.86,29.71,23,7,23,0.00
2014-7-26,101.7,87.0,76.1,69.7,64.6,60.5,69,49,28,29.83,29.70,22,6,22,0.00
2014-7-27,108.3,91.5,75.1,72.1,65.9,62.1,71,46,23,29.93,29.78,23,6,23,0.00
2014-7-28,84.7,75.3,67.7,69.6,65.7,61.8,88,73,60,30.17,29.92,22,5,22,0.72
2014-7-29,80.5,74.0,67.6,68.3,65.2,61.6,88,75,58,30.11,29.94,18,3,18,0.05
2014-7-30,86.7,74.3,66.9,74.2,67.5,62.6,89,80,65,29.97,29.81,21,5,21,0.30
2014-7-31,77.8,71.6,66.7,65.9,63.9,60.6,88,77,65,30.03,29.94,20,6,20,0.00
2014-8-1,86.5,74.0,61.7,68.5,62.9,58.1,90,70,46,30.03,29.93,12,2,12,0.00
2014-8-2,91.6,78.0,64.5,70.5,64.7,59.7,87,66,42,30.06,29.92,13,2,13,0.00
2014-8-3,91.8,79.0,65.8,68.4,63.0,58.3,85,61,36,30.06,29.92,13,1,13,0.00
2014-8-4,92.4,79.3,65.2,69.8,62.8,59.0,84,59,37,30.02,29.88,15,2,15,0.00
2014-8-5,97.0,83.4,70.9,70.9,65.0,61.9,76,56,34,29.98,29.83,17,4,17,0.00
2014-8-6,102.3,88.3,77.0,68.1,64.8,61.0,69,49,27,29.87,29.68,22,6,22,0.00
2014-8-7,106.9,90.3,73.0,71.2,64.8,61.5,69,45,25,29.75,29.60,13,4,14,0.00
2014-8-8,95.4,84.1,76.0,72.8,68.6,65.1,76,61,42,29.85,29.67,28,5,28,0.00
2014-8-9,92.8,81.9,72.8,72.1,68.4,64.1,80,65,46,29.88,29.78,17,4,17,0.34
2014-8-10,96.3,82.5,73.3,73.4,68.6,65.3,83,65,40,29.95,29.82,22,4,22,0.00
2014-8-11,94.6,82.2,71.8,71.4,67.2,64.0,83,63,38,30.04,29.89,22,4,22,0.00
2014-8-12,95.2,80.8,63.9,64.4,60.7,57.4,81,54,30,30.05,29.90,12,2,12,0.00
2014-8-13,98.4,83.0,66.8,66.0,62.5,59.1,78,53,33,30.01,29.85,13,3,16,0.00
2014-8-14,101.2,86.2,70.2,65.1,61.4,58.7,69,46,26,29.92,29.77,16,5,19,0.00
2014-8-15,102.3,88.6,73.2,63.4,60.1,55.8,63,41,23,29.85,29.66,24,6,24,0.00
2014-8-16,102.2,87.1,77.4,68.8,64.5,58.5,69,49,30,29.78,29.67,26,4,26,0.00
2014-8-17,102.0,85.6,68.0,70.3,63.8,59.9,79,52,26,29.83,29.71,15,2,15,0.00
2014-8-18,98.2,85.9,71.2,70.1,64.4,58.3,75,51,30,29.84,29.67,26,5,26,0.00
2014-8-19,95.9,84.0,72.4,69.6,66.7,64.2,76,58,36,29.79,29.64,20,6,20,0.00
2014-8-20,99.5,87.7,76.3,70.4,65.3,58.1,69,50,32,29.77,29.65,29,9,29,0.00
2014-8-21,101.2,89.3,77.2,72.6,65.4,57.9,67,47,30,29.82,29.70,27,9,27,0.00
2014-8-22,103.0,90.2,79.7,69.7,61.4,50.0,63,41,20,29.85,29.71,25,8,25,0.00
2014-8-23,100.1,86.8,71.3,63.8,53.8,45.6,54,34,17,29.82,29.68,26,7,26,0.00
2014-8-24,103.6,89.5,75.6,69.2,61.4,54.8,58,40,26,29.78,29.65,26,6,26,0.00
2014-8-25,104.1,90.7,76.5,66.3,62.3,58.4,60,40,24,29.83,29.70,20,5,20,0.00
2014-8-26,102.5,89.1,72.6,68.2,64.0,60.1,71,46,27,29.92,29.78,19,3,19,0.00
2014-8-27,99.0,87.4,75.2,70.3,65.7,61.0,74,51,31,29.94,29.78,17,3,17,0.00
2014-8-28,91.8,80.4,68.3,72.3,64.5,61.1,85,60,38,29.85,29.68,29,6,29,0.67
2014-8-29,87.8,76.0,67.4,72.0,67.6,63.3,89,76,58,29.85,29.74,16,4,16,0.00
2014-8-30,98.3,82.2,67.8,74.4,67.2,61.8,89,65,32,29.87,29.73,16,2,16,0.00
2014-8-31,98.6,86.2,74.6,72.8,67.9,62.6,78,57,32,29.80,29.61,28,9,28,0.00
2014-9-1,101.0,88.3,76.9,73.6,68.4,63.5,74,53,34,29.71,29.59,22,9,22,0.00
2014-9-2,99.3,89.4,78.2,72.7,68.3,63.7,67,51,33,29.80,29.66,24,7,24,0.00
2014-9-3,97.5,87.0,77.2,72.2,68.0,64.4,75,55,37,29.81,29.70,26,8,26,0.00
2014-9-4,96.3,85.9,75.2,68.7,65.0,61.8,72,51,33,29.88,29.75,27,9,32,0.00
2014-9-5,95.7,84.4,70.8,70.7,66.1,61.8,74,56,36,29.99,29.83,25,6,27,0.00
2014-9-6,70.6,64.1,61.9,63.0,60.3,58.6,90,88,74,30.13,29.98,20,6,22,0.74
2014-9-7,84.2,72.4,64.5,66.4,63.5,60.9,89,75,53,30.12,29.92,12,2,12,0.00
2014-9-8,91.5,78.8,66.0,71.8,67.1,61.7,88,69,49,29.96,29.77,22,4,22,0.00
2014-9-9,97.5,86.1,75.0,70.3,66.6,63.7,74,54,34,29.80,29.57,28,9,28,0.00
2014-9-10,89.3,82.0,71.4,71.3,66.1,61.5,71,59,50,29.82,29.55,25,8,27,0.00
2014-9-11,73.3,68.5,63.7,61.6,59.8,57.7,82,74,65,30.02,29.82,18,7,20,0.00
2014-9-12,70.0,61.2,55.9,61.9,54.4,46.9,88,79,69,30.31,29.99,26,9,26,0.27
2014-9-13,70.3,58.9,52.1,53.3,48.7,44.3,77,69,52,30.32,30.13,18,5,21,0.00
2014-9-14,77.3,67.4,58.3,65.0,58.9,52.5,84,75,62,30.18,30.03,16,3,16,0.00
2014-9-15,87.2,76.9,68.6,70.5,66.6,63.0,88,72,51,30.05,29.96,19,3,19,0.00
2014-9-16,89.0,79.7,71.5,72.0,68.1,66.1,84,69,49,30.02,29.86,13,2,13,0.00
2014-9-17,89.7,79.8,70.7,71.8,68.2,64.9,86,69,50,29.89,29.74,14,4,16,0.00
2014-9-18,81.9,76.1,71.2,71.2,68.1,65.4,83,76,69,29.85,29.76,21,2,22,0.00
2014-9-19,89.3,76.1,65.3,72.5,66.5,62.0,91,74,47,29.89,29.78,17,2,17,0.00
2014-9-20,88.0,78.3,70.5,73.0,68.5,64.1,86,73,56,29.93,29.83,16,2,17,0.00
2014-9-21,92.2,77.8,68.2,72.9,67.2,60.5,89,72,44,30.07,29.90,23,3,23,0.00
2014-9-22,83.6,73.5,65.1,60.4,53.8,49.7,69,52,32,30.19,30.03,16,4,17,0.00
2014-9-23,88.8,74.3,60.5,64.1,56.9,51.8,77,56,43,30.09,29.91,20,4,20,0.00
2014-9-24,89.2,75.4,64.1,60.0,54.6,49.3,65,49,36,30.06,29.95,22,4,22,0.00
2014-9-25,87.9,72.6,60.4,55.7,50.0,46.7,67,47,26,30.10,30.00,18,2,18,0.00
2014-9-26,88.0,71.6,56.1,63.4,56.6,49.4,82,61,38,30.06,29.92,14,2,14,0.00
2014-9-27,88.3,75.9,62.7,62.0,58.1,54.7,75,56,39,29.99,29.85,18,3,21,0.00
2014-9-28,88.5,74.8,61.1,64.1,58.2,53.8,79,58,36,30.00,29.89,15,2,15,0.00
2014-9-29,87.8,74.5,59.4,64.2,57.9,52.8,82,59,38,29.97,29.78,27,2,27,0.00
2014-9-30,90.8,78.1,66.2,65.8,60.0,56.3,77,56,36,29.79,29.57,26,6,28,0.00
2014-10-1,95.8,82.6,70.9,67.8,63.5,58.2,73,54,33,29.63,29.52,21,8,22,0.10
2014-10-2,81.6,73.3,58.4,67.6,56.7,42.8,76,57,40,29.91,29.56,27,7,27,0.00
2014-10-3,72.8,59.2,46.6,50.0,40.6,32.5,83,54,27,30.23,29.91,28,5,28,0.00
2014-10-4,81.7,60.7,39.6,47.0,39.8,32.7,80,51,23,30.20,29.83,22,3,22,0.00
2014-10-5,90.9,71.0,49.5,57.3,50.4,42.0,77,52,27,29.84,29.66,17,2,18,0.00
2014-10-6,90.8,75.3,58.7,65.2,57.5,51.4,82,57,31,29.79,29.64,18,4,18,0.00
2014-10-7,98.5,77.3,57.6,59.4,50.2,40.4,76,45,14,29.78,29.66,18,4,18,0.00
2014-10-8,92.5,78.9,66.2,64.2,56.2,47.0,58,46,35,29.85,29.74,22,5,22,0.00
2014-10-9,91.3,79.4,69.6,67.8,61.6,57.7,71,56,37,29.82,29.66,23,6,23,0.00
2014-10-10,81.1,67.0,51.8,65.2,57.0,46.1,82,71,49,30.03,29.66,30,10,30,0.02
2014-10-11,65.4,54.8,49.6,47.2,44.2,40.1,81,69,47,30.14,29.98,17,7,21,0.00
2014-10-12,86.7,64.4,46.0,61.7,51.1,40.8,86,66,34,29.98,29.42,31,8,31,0.43
2014-10-13,69.5,59.2,51.2,56.9,47.1,38.8,87,67,36,29.98,29.48,37,12,37,0.38
2014-10-14,79.7,61.6,48.5,44.3,40.1,35.4,67,49,21,30.12,29.95,15,6,19,0.00
2014-10-15,83.0,61.7,43.1,52.1,45.4,37.3,83,59,30,30.06,29.86,13,2,13,0.00
2014-10-16,96.5,73.4,51.9,52.2,46.6,42.8,71,44,17,29.86,29.61,24,6,24,0.00
2014-10-17,79.6,66.5,54.4,54.6,47.7,41.5,78,54,27,29.99,29.71,18,5,18,0.00
2014-10-18,75.6,62.0,48.8,51.8,46.2,43.6,84,59,35,30.12,29.98,18,4,18,0.00
2014-10-19,79.0,65.2,52.8,61.0,53.6,43.4,77,67,54,30.08,29.90,18,3,18,0.00
2014-10-20,86.8,71.6,60.0,64.3,59.0,56.1,88,67,41,29.99,29.88,16,3,16,0.00
2014-10-21,83.4,70.1,55.6,61.7,55.2,49.9,85,61,35,30.01,29.89,18,3,18,0.00
2014-10-22,75.3,64.3,57.9,58.2,54.4,49.6,87,71,49,30.03,29.94,18,3,18,0.08
2014-10-23,81.3,67.2,54.8,64.6,59.0,51.3,90,76,56,30.05,29.92,18,3,18,0.01
2014-10-24,89.8,72.5,56.7,66.2,58.6,52.2,89,65,38,30.01,29.90,22,4,22,0.00
2014-10-25,92.9,73.4,53.9,60.3,54.2,47.6,83,55,27,30.02,29.88,20,4,20,0.00
2014-10-26,91.3,75.1,58.6,60.5,55.0,50.3,75,52,31,29.89,29.61,26,8,26,0.00
2014-10-27,90.7,74.2,63.7,59.8,54.1,47.1,70,51,30,29.79,29.55,23,8,23,0.01
2014-10-28,72.6,62.5,48.7,49.9,39.4,33.4,61,44,28,30.12,29.79,24,6,24,0.00
2014-10-29,75.8,56.1,38.0,45.2,35.2,30.7,78,51,20,30.22,30.05,13,1,13,0.00
2014-10-30,79.5,63.6,51.6,56.4,43.1,33.1,71,50,22,30.19,30.01,23,4,23,0.00
2014-10-31,62.3,51.5,41.4,41.1,34.0,25.7,69,52,32,30.40,30.19,23,5,23,0.00
2014-11-1,63.8,48.7,33.8,35.3,28.9,24.1,70,49,27,30.37,30.11,22,4,22,0.00
2014-11-2,71.8,59.7,51.4,53.3,45.6,32.9,70,60,46,30.11,29.95,30,9,30,0.00
2014-11-3,70.3,64.7,57.6,60.5,55.3,48.3,75,72,69,29.98,29.88,23,6,23,0.00
2014-11-4,66.2,50.1,46.7,57.3,45.2,42.7,92,83,73,30.25,29.95,27,6,27,0.56
2014-11-5,60.9,50.7,43.6,46.6,42.5,37.4,89,75,50,30.26,30.16,6,1,9,0.00
2014-11-6,69.0,52.8,40.0,47.9,39.5,35.6,85,64,35,30.39,30.25,18,3,18,0.00
2014-11-7,73.5,57.0,41.5,49.2,43.1,34.9,80,62,35,30.27,29.88,31,6,31,0.00
2014-11-8,68.0,56.4,44.1,47.0,41.1,34.1,84,59,34,30.22,29.92,28,6,28,0.00
2014-11-9,81.3,61.7,44.0,49.0,42.7,36.6,79,54,26,30.09,29.60,29,8,29,0.00
2014-11-10,86.0,65.5,40.2,51.9,45.2,23.9,77,51,24,29.83,29.33,35,12,35,0.00
2014-11-11,41.5,34.9,29.8,23.8,18.3,12.5,62,51,40,30.39,29.83,33,10,33,0.00
2014-11-12,29.8,27.4,25.2,14.1,10.0,2.3,61,48,35,30.63,30.39,26,11,26,0.00
2014-11-13,34.0,27.7,21.6,13.4,7.8,2.1,65,43,35,30.69,30.50,18,6,19,0.00
2014-11-14,40.2,32.7,23.7,18.3,15.1,12.0,65,48,39,30.50,30.19,20,5,20,0.00
2014-11-15,59.7,42.9,32.0,36.8,27.6,17.7,80,56,40,30.20,29.84,21,9,24,0.00
2014-11-16,41.8,28.1,19.7,36.2,24.5,16.1,88,86,80,30.32,29.98,22,8,23,0.06
2014-11-17,40.0,27.2,15.1,29.1,21.0,11.1,86,78,61,30.53,30.32,11,3,11,0.02
2014-11-18,55.1,39.2,24.9,31.0,24.3,19.4,80,58,31,30.42,30.13,18,6,20,0.00
2014-11-19,60.7,43.8,30.8,34.0,28.0,22.8,74,55,32,30.17,30.07,16,4,16,0.00
2014-11-20,66.8,44.8,27.1,44.8,34.0,21.6,83,67,44,30.10,29.90,15,3,15,0.00
2014-11-21,62.1,43.7,32.1,49.7,37.4,27.9,88,79,63,30.06,29.93,13,2,13,0.00
2014-11-22,57.3,54.1,51.2,54.4,51.2,48.6,91,90,89,29.92,29.59,24,5,24,0.94
2014-11-23,64.6,52.5,42.2,50.2,43.3,33.4,92,72,49,29.84,29.35,36,11,36,0.01
2014-11-24,60.2,45.9,34.4,35.2,28.1,22.8,74,53,24,30.15,29.83,28,4,28,0.00
2014-11-25,58.0,44.4,32.9,34.1,29.0,24.3,75,56,30,30.33,29.94,15,5,18,0.00
2014-11-26,59.6,45.5,33.8,37.9,29.9,23.6,70,56,34,30.41,29.94,22,5,22,0.00
2014-11-27,54.5,41.2,27.0,32.3,28.0,20.9,79,61,39,30.53,30.22,14,4,18,0.00
2014-11-28,75.0,55.0,38.8,43.2,37.5,29.5,76,55,29,30.22,29.75,27,8,27,0.00
2014-11-29,79.3,62.1,48.9,44.1,39.5,35.3,71,46,22,29.76,29.61,30,10,30,0.00
2014-11-30,79.2,54.8,30.6,46.5,35.0,11.9,75,50,21,30.27,29.67,25,10,30,0.00
2014-12-1,35.1,27.4,20.3,11.7,7.4,4.9,59,43,32,30.59,30.27,28,9,28,0.00
2014-12-2,48.1,33.5,18.6,30.6,19.9,8.0,74,58,43,30.49,30.07,22,5,22,0.00
2014-12-3,58.2,45.4,39.7,49.2,39.2,29.9,89,79,63,30.15,30.02,12,4,13,0.00
2014-12-4,51.9,47.9,44.3,49.4,45.2,41.4,91,90,89,30.13,29.94,9,1,9,0.02
2014-12-5,60.9,54.4,43.1,56.1,50.2,39.1,92,86,79,30.26,29.90,19,4,19,0.00
2014-12-6,48.9,43.5,35.3,45.8,40.5,32.3,91,89,87,30.47,30.25,14,3,14,0.01
2014-12-7,52.4,46.2,42.4,47.4,43.0,39.7,92,89,82,30.42,30.20,10,3,12,0.00
2014-12-8,59.7,47.0,38.0,51.2,42.7,34.1,92,85,70,30.35,30.24,10,2,10,0.01
2014-12-9,56.9,44.0,35.7,50.5,40.3,32.2,92,87,78,30.34,30.18,10,2,10,0.02
2014-12-10,60.4,50.8,39.5,52.7,45.8,36.7,92,83,74,30.18,30.04,10,2,10,0.00
2014-12-11,62.7,55.9,44.3,55.6,50.0,39.2,88,81,75,30.12,30.03,14,3,14,0.00
2014-12-12,59.0,55.0,52.7,55.8,52.1,49.0,92,90,87,30.16,30.06,13,3,15,0.01
2014-12-13,65.8,58.9,53.9,58.3,54.4,51.6,93,85,74,30.08,29.85,20,7,21,0.00
2014-12-14,70.3,60.2,52.5,58.8,43.0,26.8,88,59,23,29.85,29.60,30,10,30,0.02
2014-12-15,59.5,49.8,42.3,35.4,31.7,26.8,67,51,33,30.20,29.69,30,10,30,0.00
2014-12-16,51.3,40.5,30.9,31.8,27.4,23.6,76,60,41,30.39,30.20,21,4,21,0.00
2014-12-17,42.7,41.0,39.4,37.6,34.6,30.9,89,78,64,30.25,30.05,18,5,18,0.01
2014-12-18,45.2,42.6,40.6,41.4,39.2,37.6,91,87,82,30.20,30.04,10,3,11,0.02
2014-12-19,44.5,42.7,40.8,40.5,39.2,37.6,90,87,84,30.22,30.13,12,2,12,0.00
2014-12-20,49.3,44.3,40.9,42.1,39.7,37.2,88,84,75,30.20,30.06,15,4,15,0.01
2014-12-21,64.8,50.1,41.0,50.0,43.6,37.7,89,79,49,30.07,29.49,27,8,27,0.00
2014-12-22,59.4,49.9,37.9,45.7,37.5,33.0,89,65,40,29.71,29.45,20,6,23,0.00
2014-12-23,51.4,43.8,38.8,34.3,30.3,27.8,69,59,43,30.03,29.70,25,10,29,0.00
2014-12-24,52.1,41.3,32.2,31.2,25.0,16.9,73,54,29,30.10,29.86,28,8,28,0.00
2014-12-25,60.4,47.8,35.9,31.0,28.3,23.0,65,48,31,29.85,29.69,23,11,27,0.00
2014-12-26,63.2,49.9,38.6,44.2,35.4,29.0,72,58,45,30.09,29.73,25,8,25,0.00
2014-12-27,40.2,33.5,23.6,29.5,24.9,16.9,85,71,55,30.35,30.07,26,7,26,0.02
2014-12-28,48.4,33.7,17.8,31.3,23.9,12.9,82,68,48,30.34,30.01,26,5,26,0.01
2014-12-29,49.0,36.9,22.9,35.0,28.4,18.0,84,72,55,30.29,29.97,17,4,17,0.00
2014-12-30,37.2,26.4,15.8,29.9,19.8,11.3,82,76,69,30.72,30.29,27,12,27,0.00
2014-12-31,22.3,18.0,13.6,17.4,12.8,8.9,82,80,75,30.73,30.46,23,6,23,0.00
2015-1-1,29.7,25.7,21.8,26.3,22.0,17.0,87,86,81,30.47,30.21,6,1,8,0.00
2015-1-2,34.1,32.0,29.7,32.8,29.1,26.3,96,89,87,30.28,29.95,9,1,9,0.75